World > North America > United States > Mississippi > Charleston  

Charleston, MS Hourly Weather Updates

Feedback E-mail the Weather

Quick Clicks

Charleston, MS Weather Maps

°F °C°F °C
Charleston Weather Map
UTC Time: 6/22/2024, 02:05
Your Time:

Charleston, MS Regional Weather

Expires:202406220200;;438137
ASUS44 KJAN 220110
RWRMS 

MISSISSIPPI HOURLY WEATHER ROUNDUP
NATIONAL WEATHER SERVICE JACKSON MS
800 PM CDT FRI JUN 21 2024

NOTE: "FAIR: INDICATES FEW OR NO CLOUDS BELOW 12,000 FEET WITH NO
SIGNIFICANT WEATHER AND/OR OBSTRUCTIONS TO VISIBILITY.


MSZ001>002-007>008-010>013-018>021-025>028-034>036-220200-
NORTHWEST MISSISSIPPI
  
CITY           SKY/WX    TMP DP  RH WIND       PRES   REMARKS
BATESVILLE     CLEAR     82  75  78 CALM      30.08S                  
CLARKSDALE       N/A     86  86 100 NW3       30.09S HX 112           
GREENWOOD      CLEAR     85  72  65 CALM      30.08S HX  91           
GREENVILLE     CLEAR     88  76  67 CALM      30.07F HX  99           
OLIVE BRANCH   CLEAR     86  66  51 E5        30.09F                  
OXFORD         CLEAR     84  68  58 CALM        N/A                   
TUNICA         CLEAR     87  78  75 CALM      30.09S HX 100           
$$


SKY/WX - Weather  TMP - Temperature  DP - Dew Point  RH - Humidity
WIND - Wind Direction/Speed PRES - Barometric Pressure VSB - Visibility
WCI - Wind Chill Index E13G22 Wind - East Wind 13 mph/Gusts of 22 mph

Trending Headlines

Trending Entertainment Headlines

Charleston Radar Loop

Use the map search tool if you want to place a location marker on the radar map...

Charleston Quick Facts

National Two Day Weather Forecast


E-mail the Charleston Weather Forecast

Voice your opinion or tell us about page issues...